Regional Weather Roundup
Issued by NWS Charleston, SC

Current Version | Previous Version | Graphics & Text | Print | Product List | Glossary On
Versions: 1 2 3 4 5 6 7 8 9 10 11 12 13 14 15 16 17 18 19 20 21 22 23 24 25 26 27 28 29 30 31 32 33 34 35 36 37 38 39 40 41 42 43 44 45 46 47 48 49 50
917
ASUS42 KCHS 300812
RWRCHS

REGIONAL WEATHER ROUNDUP
NATIONAL WEATHER SERVICE CHARLESTON SC
400 AM EDT TUE MAY 30 2017

NOTE: "FAIR" INDICATES FEW OR NO CLOUDS BELOW 12,000 FEET WITH NO
SIGNIFICANT WEATHER AND/OR OBSTRUCTIONS TO VISIBILITY.

NOT ALL STATIONS ARE QUALITY CONTROLLED. USE DATA WITH CAUTION...
ESPECIALLY DEWPOINT OBSERVATIONS.

SCZ027-030-031-034>040-042>050-300900-
...SOUTHEAST SOUTH CAROLINA...

CITY           SKY/WX    TMP DP  RH WIND       PRES   REMARKS
N CHARLESTON   PTCLDY    74  70  87 CALM      30.02S
WATERFRONT PRK   N/A     78  74  87 VRB2      30.01F
JOHNS ISLAND   FAIR      75  73  94 CALM      30.02F
PINOPOLIS        N/A     73  72  94 CALM      29.95S
MONCKS CORNER  FAIR      70  68  94 CALM      30.03R
SUMMERVILLE    FAIR      70  70 100 CALM      30.04R
BEAUFORT MCAS  PTCLDY    75  73  93 SW3       30.03S
BEAUFORT ARPT  FAIR      77  72  83 W5        30.03S
HILTON HEAD IS CLEAR     79  73  83 CALM      30.04R
WALTERBORO     MOSUNNY   70  66  88 NW3       30.04S
ALLENDALE      FAIR      72  68  88 CALM      30.03S

...SOUTHERN MIDLANDS AND PEE DEE...

CITY           SKY/WX    TMP DP  RH WIND       PRES   REMARKS
GEORGETOWN     FAIR      72  70  94 CALM      30.04S
KINGSTREE      FAIR      70  68  94 CALM      30.04F
ORANGEBURG     CLOUDY    70  68  93 S3        30.04S
BARNWELL       FAIR      72  72 100 CALM      30.04S
AIKEN          PTSUNNY   64  64 100 NW3       30.08F FOG
MANNING        FAIR      68  68 100 NE10G18   30.04R
COLUMBIA       CLEAR     69  66  90 W6        30.03S
SUMTER         MOCLDY    70  68  95 W5        30.01S
FLORENCE       MOCLDY    70  70 100 SE5       30.03F
MYRTLE BEACH   CLOUDY    75  71  87 NW5       30.03
N MYRTLE BEACH CLOUDY    72  70  93 CALM      30.00F

$$

GAZ063-065-086>088-099>101-113>116-118-119-134>141-150-300900-
...SOUTHEAST GEORGIA...

CITY           SKY/WX    TMP DP  RH WIND       PRES   REMARKS
SAVANNAH ARPT  CLEAR     75  70  84 CALM      30.03F
HUNTER AAF     CLEAR     73  73 100 CALM      30.01S
FORT STEWART   CLEAR     73  70  89 CALM      30.02S
STATESBORO     PTCLDY    72  72 100 CALM      30.05S
SYLVANIA       MOSUNNY   73  71  93 CALM      30.05F
CLAXTON        FAIR     N/A N/A N/A CALM      30.05S

...CSRA...CENTRAL AND FAR SOUTHEAST GEORGIA...

CITY           SKY/WX    TMP DP  RH WIND       PRES   REMARKS
THOMSON        CLOUDY    65  64  98 W5        30.10F FOG
AUGUSTA-BUSH   PTCLDY    69  66  90 CALM      30.04F
AUGUSTA-DANIEL PTCLDY    70  66  87 CALM      30.06S
SWAINSBORO     FAIR      68  68 100 CALM      30.07R
VIDALIA        CLEAR     73  70  88 CALM      30.06S
EASTMAN        FOG       71  71 100 CALM      30.10R VSB 3/4
HAZLEHURST     FAIR      74  74 100 CALM      30.05S
ALMA           PTCLDY    77  73  87 W5        30.05S
WAYCROSS       PTCLDY    78  78 100 W5        30.05S
JESUP          FAIR      73  68  83 CALM      30.05R
BAXLEY         FAIR      73  73 100 CALM      30.05S
BRUNSWICK      CLEAR     77  73  88 W5        30.05S
SAINT SIMONS   CLEAR     78  74  87 SW6       30.04S

$$

SCZ027-028-034-036>038-045-046-048>050-GAZ119-141-300900-
...LAKE AND SUPPLEMENTAL COASTAL OBSERVATIONS...

STATION/POSITION TIME  TEMP    WIND        PRES    WAVE   SWELL
                       AIR SEA DIR/SP/G            HT/PER HT/PER/DIR
                 (UTC) (F)     (DEG/KT/KT) (MB)    (FT/S) (FT/S/D)
WINYAH BAY       0645   75     240/  2     1017.0
LAKE MURRAY      0720   71     220/  5/  6 1016.6
ACE BASIN NERRS  NOT AVBL
FORT PULASKI     0748   77     330/  5/  5 1017.1S
SAPELO ISLAND    0700   79     230/  7     1017.0

$$

ANZ835-935-AMZ111-154-330-350-352-354-370-450-454-472-300900-
...C-MAN AND BUOY OBSERVATIONS...

STATION/POSITION TIME  TEMP    WIND        PRES    WAVE   SWELL
                       AIR SEA DIR/SP/G            HT/PER HT/PER/DIR
                 (UTC) (F)     (DEG/KT/KT) (MB)    (FT/S) (FT/S/D)
BUOY 41004       NOT AVBL
BUOY 41008       NOT AVBL
FOLLY BEACH CMAN 0700   78     260/  5/  6 1017.5F
CAPERS NEARSHORE 0708   82 79  250/  8/ 12 1016.6F
FRIPP NEARSHORE  0708   80 79  230/ 12/ 16 1016.5R


STATION/POSITION TIME  TEMP    WIND        PRES    WAVE   SWELL
                       AIR SEA DIR/SP/G            HT/PER HT/PER/DIR
                 (UTC) (F)     (DEG/KT/KT) (MB)    (FT/S) (FT/S/D)
5E ST. MARYS GA  0730      79                N/A     1/ 3
FRYING PAN BUOY  NOT AVBL
BUOY 41025       NOT AVBL
CAPE LOOKOUT NC  0700   72     350/ 13/ 16 1015.8F
BUOY 41002       NOT AVBL
BUOY 41010       NOT AVBL
ST AUGUSTINE FL  0800   76 77  240/  4/  6 1019.0S


$$




USA.gov is the U.S. government's official web portal to all federal, state and local government web resources and services.